Weather in Pozdeyevka

Russia / Amur Oblast     50°35′20″N   128°53′05″E
temp.,
°C
wind,
m/s
gust,
m/s
humid.,
%
clouds,
%
prec.,
mm/h
press.,
hPa
HPBL,
m
29 july, thu
thu2900:00+20sw3490100 0.0 100269
03:00+19wsw349290 0.0 100257
06:00+19w2291100 0.0 100254
09:00+24ssw2375100 0.0 1002390
12:00+26sw4568100 0.3 1001827
15:00+25ssw3581100 2.3 1000444
18:00+23ssw358796 0.6 1000124
21:00+20ssw3793100 1.0 1000124
30 july, fri
fri3000:00+20ssw3795100 0.1 999146
03:00+19wsw34941 0.3 99958
06:00+19sw23940 0.0 99961
09:00+23sw227910 0.0 999465
12:00+26sw236733 0.0 10001166
15:00+26wsw227114 1.5 999973
18:00+25nnw12781 1.3 999178
21:00+19nne41093100 2.7 1001214
31 july, sat
sat3100:00+18nne4992100 0.0 1002206
03:00+17nne3692100 0.1 1002140
06:00+16nne4895100 0.6 1003218
09:00+16nne4797100 2.3 1003292
12:00+15nne5998100 4.3 1003310
15:00+15nne61099100 9.4 1002345
18:00+15nne5899100 4.0 1002318
21:00+17ne3599100 4.6 1001216
1 august, sun
sun100:00+17ne3799100 2.8 1000315
03:00+18ese41099100 14.0 998611
06:00+19se81698100 11.9 996763
09:00+19sse81598100 15.6 997627
12:00+17sw4999100 1.6 999449
15:00+14w3599100 2.3 1001204
18:00+13wnw3499100 2.8 1002205
21:00+13wnw239898 3.3 1003191
2 august, mon
mon200:00+12wsw3599100 0.4 1002261
03:00+12sw369799 0.4 1004277
06:00+12ssw2496100 0.0 1005247
09:00+15sw2386100 0.0 1006477
12:00+15sw2282100 0.0 1007410
15:00+18s2273100 0.0 1007721
18:00+18s237997 0.0 1008549
21:00+14s229261 0.0 100916